Everett, WA

2:31 AM PST on December 06, 2019 (GMT -0800)
Snohomish County

Weather History for KPAE - July, 2019

Change the Weather History Date:

Saturday, July 13, 2019

  Actual Average Record
Temperature  
Mean Temperature 66 °F -  
Max Temperature 75 °F 71 °F 90 °F (1961)
Min Temperature 60 °F 53 °F 44 °F (1971)
Cooling Degree Days 2    
Growing Degree Days 16 (Base 50)    
Moisture  
Dew Point 54 °F    
Average Humidity 68    
Maximum Humidity 80    
Minimum Humidity 53    
Precipitation  
Precipitation 0.00 in - - ()
Sea Level Pressure  
Sea Level Pressure 30.03 in    
Wind  
Wind Speed 6 mph (NNW)    
Max Wind Speed 9 mph    
Max Gust Speed -    
Visibility 10 miles    
Events      
Averages and records for this station are not official NWS values.
T = Trace of Precipitation, MM = Missing Value Source: NWS Daily Summary

Daily Weather History Graph

Daily Weather History Graph

Search for Another Location

Airport or City:

Astronomy

Jul. 13, 2019 Rise Set
Actual Time 5:23 AM PDT 9:05 PM PDT
Civil Twilight 4:44 AM PDT 9:44 PM PDT
Nautical Twilight 3:50 AM PDT 10:38 PM PDT
Astronomical Twilight 2:34 AM PDT 11:53 PM PDT
Moon 6:32 PM PDT (7/13) 2:52 AM PDT (7/13)
Length of Visible Light 17h 00m
Length of Day
15h 42m
Waxing Gibbous, 90% of the Moon is Illuminated
Jul 13
Waxing Gibbous
Jul 16
Full
Jul 24
Last Quarter
Jul 31
New
Aug 7
First Quarter

Hourly Weather History & Observations

Time (PDT) Temp. Dew Point Humidity Pressure Visibility Wind Dir Wind Speed Gust Speed Precip Events Conditions
12:53 AM 60.1 °F 53.1 °F 78% 30.01 in 10.0 mi North 9.2 mph - N/A   Clear
1:53 AM 60.1 °F 53.1 °F 78% 30.01 in 10.0 mi North 5.8 mph - N/A   Clear
2:53 AM 60.1 °F 53.1 °F 78% 30.01 in 10.0 mi North 5.8 mph - N/A   Overcast
3:53 AM 60.1 °F 53.1 °F 78% 30.01 in 10.0 mi NNE 3.5 mph - N/A   Overcast
4:53 AM 60.1 °F 53.1 °F 78% 30.01 in 10.0 mi NNE 4.6 mph - N/A   Overcast
5:53 AM 60.1 °F 53.1 °F 78% 30.02 in 10.0 mi NNE 5.8 mph - N/A   Overcast
6:53 AM 61.0 °F 53.1 °F 75% 30.02 in 10.0 mi Variable 4.6 mph - N/A   Overcast
7:53 AM 61.0 °F 54.0 °F 78% 30.04 in 10.0 mi NNE 4.6 mph - N/A   Overcast
8:53 AM 64.0 °F 55.0 °F 73% 30.04 in 10.0 mi Calm Calm - N/A   Overcast
9:53 AM 64.9 °F 55.0 °F 70% 30.04 in 10.0 mi North 4.6 mph - N/A   Mostly Cloudy
10:53 AM 66.0 °F 53.1 °F 63% 30.05 in 10.0 mi WNW 8.1 mph - N/A   Partly Cloudy
11:53 AM 69.1 °F 54.0 °F 58% 30.06 in 10.0 mi Variable 4.6 mph - N/A   Mostly Cloudy
12:53 PM 71.1 °F 54.0 °F 55% 30.06 in 10.0 mi WNW 6.9 mph - N/A   Partly Cloudy
1:53 PM 71.1 °F 55.0 °F 57% 30.05 in 10.0 mi West 6.9 mph - N/A   Partly Cloudy
2:03 PM 71.1 °F 55.0 °F 57% 30.06 in 10.0 mi West 5.8 mph - N/A   Mostly Cloudy
2:53 PM 72.0 °F 55.0 °F 55% 30.05 in 10.0 mi NW 6.9 mph - N/A   Mostly Cloudy
3:00 PM 71.1 °F 55.0 °F 57% 30.05 in 10.0 mi WNW 6.9 mph - N/A   Scattered Clouds
3:53 PM 73.0 °F 55.0 °F 53% 30.03 in 10.0 mi Variable 3.5 mph - N/A   Clear
4:53 PM 72.0 °F 55.0 °F 55% 30.02 in 10.0 mi North 8.1 mph - N/A   Clear
5:53 PM 71.1 °F 55.0 °F 57% 30.01 in 10.0 mi North 8.1 mph - N/A   Clear
6:53 PM 69.1 °F 53.1 °F 57% 30.01 in 10.0 mi North 6.9 mph - N/A   Scattered Clouds
7:53 PM 64.0 °F 53.1 °F 67% 30.02 in 10.0 mi North 9.2 mph - N/A   Clear
8:53 PM 62.1 °F 54.0 °F 75% 30.02 in 10.0 mi Variable 5.8 mph - N/A   Scattered Clouds
9:53 PM 61.0 °F 53.1 °F 75% 30.04 in 10.0 mi North 5.8 mph - N/A   Mostly Cloudy
10:53 PM 61.0 °F 53.1 °F 75% 30.04 in 10.0 mi North 6.9 mph - N/A   Mostly Cloudy
11:53 PM 60.1 °F 54.0 °F 80% 30.04 in 10.0 mi North 5.8 mph - N/A   Clear